DMSP 5D-2 F13 DEB, 40436

Orbit data source: Space-Track

DMSP 5D-2 F13 DEB, 40436 is space debris in SSO originally from a launch on Fri, 24 Mar 1995 UTC launched from the Air Force Western Test Range (AFWTR). Debris objects in space refer to the collection of defunct objects orbiting the Earth. Examples of debris include non-operational satellites, rocket bodies, and fragments generated from explosions, collisions, or faulty payload assembly.

Loading next visibility...
Identifier
40436, 1995-015AN
Orbit
SSO
Country
Flag of USUS
Related business
Manufacturer
Unknown
Mission
Spacecraft
Bus & Motor
Unknown
Mass
Unknown
Launch date (UTC)
1995-03-24 (31 years ago)
Launch vehicle
Unknown
Launch site
Air Force Western Test Range (AFWTR)
Object type
Payload
Rocket body
Debris
Shape & HBR
Unknown shape, 0.1 m
Radar Cross Section
Small (<0.1 m²)

Expand to show TLE details & history
Last TLE update: 19 hours ago

TLE from 19 hours ago
0 DMSP 5D-2 F13 DEB
1 40436U 95015AN  25348.21785111  .00000884  00000-0  85379-3 0  9990
2 40436  98.8776  75.7563 0228929 256.7548 100.7976 13.71444432538926
Epoch: 2025-12-14T05:13Z
TLE epoch observation values (Epoch: 2025-12-14T05:13:42.335Z)
Latitude
-0.00001°
Longitude
-85.80402°
Altitude
1,032.562 km
Speed
7.318 km/s
True Right ascension
05h 03m 01s
True Declination
0° 00' 00"
Sunlit
Object was in full shadow at epoch
Visualization orbit readout
Latitude
Unknown
Longitude
Unknown
Altitude
Unknown
Speed
Unknown
Apparent Right ascension
Unknown
Apparent Declination
Unknown
Sunlit
N/A
Visualization observer readout
Local Sidereal Time
22:38:56
Azimuth
Unknown
Elevation
Unknown
Doppler factor
Unknown
Orbital elements
Apogee altitude
1,160.335 km
Perigee altitude
822.904 km
Semi-major axis
7,369.757 km
Eccentricity
0.02289
Inclination
98.8776°
RAAN
75.7563°
Arg. of periapsis
256.7548°
True anomaly
103.35989°
Mean anomaly
100.7976°
Eccentric anomaly
102.08022°
Mean motion
3.43055 °/min
Orbital period
104.94 mins
BSTAR
0.00085379
Loading maneuver chart data...
Computing Atmospheric mass density...

Documentation

Showing up to 5 results
|